Date,TemperatureHighF,TemperatureAvgF,TemperatureLowF,DewpointHighF,DewpointAvgF,DewpointLowF,HumidityHigh,HumidityAvg,HumidityLow,PressureMaxIn,PressureMinIn,WindSpeedMaxMPH,WindSpeedAvgMPH,GustSpeedMaxMPH,PrecipitationSumIn
2013-1-1,57,45,38,31,22,11,65,42,21,30.18,30.06,20,1,21,0.00
2013-1-2,63,48,36,24,14,5,53,29,10,30.11,30.01,8,0,12,0.00
2013-1-3,67,51,40,22,9,3,32,19,8,30.17,30.01,18,1,21,0.00
2013-1-4,64,51,43,14,3,-6,21,15,6,30.23,30.14,14,2,21,0.00
2013-1-5,65,51,42,20,6,-2,37,17,7,30.23,30.14,13,1,14,0.00
2013-1-6,53,45,41,38,30,16,78,59,32,30.17,29.97,11,0,14,0.01
2013-1-7,62,47,35,34,25,16,84,49,17,30.04,29.93,17,1,20,0.00
2013-1-8,72,56,45,24,17,10,32,22,10,30.11,30.00,9,0,13,0.00
2013-1-9,71,58,45,37,27,21,74,32,16,30.12,29.96,12,1,18,0.00
2013-1-10,47,43,35,43,35,22,86,73,46,30.01,29.87,28,3,32,0.07
2013-1-11,48,38,29,23,18,10,67,46,21,30.11,29.98,10,0,18,0.00
2013-1-12,49,38,30,22,14,1,66,41,14,30.09,30.00,9,0,12,0.00
2013-1-13,50,40,30,17,9,0,49,29,13,30.09,29.98,12,1,14,0.00
2013-1-14,50,38,28,7,-2,-14,35,20,7,30.26,30.06,6,0,12,0.00
2013-1-15,59,43,31,18,6,-7,40,22,10,30.36,30.25,6,0,8,0.00
2013-1-16,69,52,40,25,18,14,42,27,13,30.30,30.12,9,0,13,0.00
2013-1-17,74,58,46,17,10,2,28,16,6,30.18,30.07,26,2,29,0.00
2013-1-18,76,60,49,23,12,6,22,16,8,30.15,30.07,16,1,17,0.00
2013-1-19,76,58,50,19,7,-1,21,13,5,30.19,30.09,19,2,22,0.00
2013-1-20,76,60,49,18,2,-5,18,10,4,30.15,30.02,10,0,13,0.00
2013-1-21,77,61,49,20,-1,-11,18,9,3,30.12,30.03,12,0,12,0.00
2013-1-22,79,63,50,17,1,-18,19,9,2,30.12,30.03,21,2,24,0.00
2013-1-23,77,66,57,35,25,13,41,22,14,30.12,30.05,22,3,23,0.00
2013-1-24,63,55,48,53,44,27,87,68,33,30.20,30.09,19,0,28,0.17
2013-1-25,59,56,54,53,50,46,87,79,62,30.14,29.94,22,1,24,0.47
2013-1-26,58,55,53,53,51,49,89,87,78,29.98,29.89,17,0,20,0.12
2013-1-27,53,49,43,49,42,34,88,77,57,30.01,29.95,13,1,21,0.00
2013-1-28,52,42,35,37,30,19,85,63,30,30.12,29.96,17,1,20,0.21
2013-1-29,56,44,35,38,31,24,80,61,40,30.17,30.09,9,0,13,0.00
2013-1-30,68,53,40,36,32,26,80,48,22,30.28,30.17,7,0,9,0.00
2013-1-31,74,58,45,38,31,25,60,39,17,30.22,30.09,15,1,17,0.00
2013-2-1,74,61,49,36,26,20,38,28,14,30.18,30.10,14,0,17,0.00
2013-2-2,74,63,57,39,29,22,49,27,17,30.20,30.11,8,0,14,0.00
2013-2-3,68,59,53,46,40,34,66,51,34,30.14,30.01,16,0,17,0.00
2013-2-4,74,59,49,41,37,29,66,46,20,30.07,29.97,11,0,13,0.00
2013-2-5,69,56,46,46,38,28,85,54,29,30.06,29.95,10,0,13,0.00
2013-2-6,62,50,44,43,40,35,87,69,42,30.08,29.97,8,0,10,0.00
2013-2-7,65,51,39,44,36,27,81,58,32,30.09,29.96,10,0,16,0.00
2013-2-8,46,40,34,38,34,29,86,80,66,29.98,29.85,13,1,20,0.43
2013-2-9,48,40,33,35,32,28,84,72,49,30.06,29.87,8,0,12,0.06
2013-2-10,50,42,35,35,31,27,82,67,42,30.06,29.96,6,0,12,0.00
2013-2-11,55,44,36,35,22,7,80,48,17,30.18,30.00,13,0,18,0.00
2013-2-12,60,46,36,23,16,6,48,31,12,30.27,30.18,6,0,10,0.00
2013-2-13,67,52,39,24,19,10,44,29,12,30.21,30.10,11,0,12,0.00
2013-2-14,74,58,46,30,22,15,43,26,11,30.18,30.04,13,1,18,0.00
2013-2-15,75,57,48,25,16,6,32,21,7,30.21,30.12,6,0,14,0.00
2013-2-16,78,62,49,20,8,-7,24,13,4,30.19,30.00,21,2,23,0.00
2013-2-17,68,55,42,39,21,5,81,31,11,30.00,29.90,13,1,16,0.00
2013-2-18,64,48,36,40,35,25,87,63,24,30.04,29.92,7,0,12,0.00
2013-2-19,46,43,36,40,36,31,85,78,62,29.95,29.68,27,1,33,0.25
2013-2-20,51,41,34,34,30,25,86,66,41,29.96,29.65,14,1,22,0.07
2013-2-21,54,43,35,35,29,25,76,59,34,30.06,29.93,9,0,13,0.00
2013-2-22,62,48,36,34,24,10,70,43,14,30.14,30.06,12,1,16,0.00
2013-2-23,63,50,41,32,27,20,64,44,21,30.14,29.89,12,1,16,0.00
2013-2-24,62,49,38,28,12,-4,63,27,8,30.16,29.94,18,1,18,0.00
2013-2-25,67,52,39,20,10,-3,42,20,8,30.18,30.04,9,0,14,0.00
2013-2-26,72,54,40,21,13,3,43,22,9,30.11,29.96,13,1,14,0.00
2013-2-27,69,55,44,16,7,-2,22,15,6,30.26,30.11,13,1,16,0.00
2013-2-28,75,59,45,18,8,-3,22,14,6,30.31,30.21,14,1,16,0.00
2013-3-1,82,65,50,24,14,7,25,14,6,30.31,30.18,10,0,13,0.00
2013-3-2,82,67,56,28,15,7,20,14,6,30.25,30.09,15,1,17,0.00
2013-3-3,71,61,50,34,22,12,55,24,13,30.12,29.98,16,1,20,0.00
2013-3-4,67,53,43,42,39,34,80,60,33,30.09,30.00,10,0,14,0.00
2013-3-5,69,54,43,46,41,34,87,63,34,30.08,30.00,20,2,20,0.01
2013-3-6,61,51,45,44,39,35,88,65,40,30.10,29.98,11,0,13,0.01
2013-3-7,53,47,41,47,40,34,86,78,65,30.00,29.84,16,0,16,0.08
2013-3-8,46,42,39,40,36,34,85,80,65,30.00,29.75,17,1,21,0.86
2013-3-9,55,47,42,42,39,37,86,74,52,30.17,29.98,6,0,10,0.07
2013-3-10,71,55,40,38,30,16,81,45,13,30.22,30.12,11,0,14,0.00
2013-3-11,75,61,48,35,24,12,41,27,10,30.17,30.04,9,0,10,0.00
2013-3-12,82,66,51,35,28,19,42,26,10,30.12,30.02,11,0,16,0.00
2013-3-13,87,71,59,37,27,18,30,20,8,30.14,30.05,12,1,14,0.00
2013-3-14,90,73,61,41,29,21,30,20,9,30.12,30.03,17,0,17,0.00
2013-3-15,85,70,60,43,29,19,39,23,11,30.07,29.95,16,1,22,0.00
2013-3-16,79,64,53,46,30,19,70,31,12,29.97,29.87,13,0,16,0.00
2013-3-17,75,58,44,47,42,32,87,60,22,29.98,29.92,10,0,13,0.00
2013-3-18,69,55,44,47,44,34,89,68,31,30.06,29.97,7,0,12,0.00
2013-3-19,74,58,45,49,44,39,88,64,30,30.09,30.02,9,0,13,0.00
2013-3-20,74,61,50,46,41,34,78,50,23,30.09,29.97,10,0,13,0.00
2013-3-21,73,58,48,46,42,33,79,57,24,29.98,29.81,16,1,20,0.00
2013-3-22,75,57,46,47,43,32,88,64,21,29.92,29.80,16,0,18,0.00
2013-3-23,76,58,44,44,34,21,81,46,14,30.01,29.90,12,1,16,0.00
2013-3-24,78,63,50,36,29,18,45,30,11,30.01,29.89,12,0,13,0.00
2013-3-25,81,66,54,37,29,15,46,28,9,29.98,29.90,12,0,18,0.00
2013-3-26,75,62,51,38,27,7,48,29,11,29.96,29.89,16,1,20,0.00
2013-3-27,72,58,48,42,35,22,62,43,27,30.03,29.92,11,1,20,0.00
2013-3-28,78,61,48,44,38,27,68,46,16,30.07,30.00,15,0,17,0.00
2013-3-29,81,65,52,48,38,28,70,40,16,30.12,30.03,14,1,20,0.00
2013-3-30,78,64,53,50,42,33,78,49,23,30.12,30.02,11,0,20,0.00
2013-3-31,70,57,46,48,40,30,75,55,35,30.10,30.01,23,2,26,0.00
2013-4-1,66,56,49,46,43,37,85,63,36,30.14,30.03,10,0,16,0.00
2013-4-2,76,60,50,46,43,34,83,58,24,30.06,29.96,10,0,14,0.00
2013-4-3,84,66,52,44,35,26,70,36,13,30.07,29.99,16,1,26,0.00
2013-4-4,80,65,52,44,38,25,64,40,13,30.09,30.01,22,1,22,0.00
2013-4-5,70,58,46,50,46,41,84,66,42,30.07,29.98,12,0,14,0.00
2013-4-6,74,60,52,49,47,43,86,66,34,30.06,29.95,12,0,17,0.00
2013-4-7,74,59,48,50,46,40,84,66,31,29.99,29.82,11,0,13,0.00
2013-4-8,53,50,44,48,42,33,85,73,51,29.84,29.68,30,5,37,0.05
2013-4-9,71,54,40,38,27,3,84,44,7,30.01,29.81,17,1,23,0.00
2013-4-10,81,62,47,27,18,-3,40,22,4,30.08,29.97,18,1,24,0.00
2013-4-11,79,63,52,48,29,15,79,32,12,30.03,29.79,17,1,21,0.00
2013-4-12,83,62,47,48,44,33,87,59,17,29.90,29.76,14,1,18,0.00
2013-4-13,76,61,46,51,45,38,82,60,27,29.90,29.81,12,1,20,0.00
2013-4-14,58,52,48,48,44,42,85,76,57,29.89,29.80,7,0,12,0.00
2013-4-15,59,52,48,45,43,40,87,71,52,29.88,29.82,20,1,21,0.00
2013-4-16,60,49,43,40,35,29,76,60,32,29.96,29.85,19,2,20,0.00
2013-4-17,70,53,40,32,18,-6,69,33,5,30.11,29.96,16,1,22,0.00
2013-4-18,76,60,44,18,6,-6,28,13,5,30.18,30.09,11,0,14,0.00
2013-4-19,84,66,48,17,5,-6,19,10,3,30.16,29.98,10,0,13,0.00
2013-4-20,90,70,54,29,19,9,25,15,5,30.03,29.90,18,1,23,0.00
2013-4-21,87,71,59,32,24,7,28,18,5,30.02,29.95,18,2,22,0.00
2013-4-22,82,65,52,42,30,20,66,30,11,30.02,29.89,12,1,17,0.00
2013-4-23,86,62,44,47,40,28,88,53,13,29.95,29.85,10,0,12,0.00
2013-4-24,69,56,48,49,46,43,85,71,45,29.97,29.89,11,0,18,0.00
2013-4-25,71,57,50,46,43,41,81,61,35,30.10,29.95,7,0,9,0.00
2013-4-26,84,64,48,46,41,25,77,49,13,30.15,30.07,13,1,16,0.00
2013-4-27,91,73,55,44,33,17,61,27,7,30.15,30.01,19,1,21,0.00
2013-4-28,94,73,56,46,35,20,53,28,7,30.03,29.89,18,1,20,0.00
2013-4-29,89,71,56,46,37,26,64,33,12,29.92,29.80,9,0,13,0.00
2013-4-30,77,60,50,51,47,38,87,65,26,29.90,29.81,10,0,13,0.00
2013-5-1,90,67,54,51,42,5,81,50,4,30.09,29.90,10,0,13,0.00
2013-5-2,92,74,54,100,4,-34,70,15,1,30.15,30.04,10,1,13,0.00
2013-5-3,93,75,59,27,1,-22,18,6,1,30.09,29.84,22,1,29,0.00
2013-5-4,82,66,54,49,26,0,79,30,7,29.87,29.76,16,1,21,0.00
2013-5-5,66,57,50,48,45,39,82,65,41,29.95,29.84,22,2,29,0.00
2013-5-6,59,54,51,52,47,42,87,78,68,30.02,29.92,11,0,20,0.12
2013-5-7,63,55,49,51,45,39,86,71,46,30.06,29.97,14,0,20,0.08
2013-5-8,68,58,52,48,45,40,83,63,37,30.08,30.03,8,0,16,0.00
2013-5-9,75,60,47,53,47,42,85,67,33,30.08,30.00,10,0,13,0.04
2013-5-10,86,67,51,53,48,37,87,57,18,30.10,30.00,17,1,22,0.01
2013-5-11,99,78,62,48,37,18,56,27,6,30.10,30.01,37,0,44,0.00
2013-5-12,100,83,69,39,29,10,25,16,4,30.10,29.97,20,1,26,0.00
2013-5-13,100,85,73,40,30,18,23,15,6,30.04,29.94,16,1,23,0.00
2013-5-14,91,78,59,42,24,-6,47,16,3,30.02,29.93,17,3,28,0.00
2013-5-15,82,65,48,49,39,19,75,42,22,30.03,29.95,10,0,14,0.00
2013-5-16,79,62,50,52,48,38,87,64,25,29.98,29.88,12,0,17,0.00
2013-5-17,75,62,55,51,49,44,80,64,34,30.01,29.91,16,0,22,0.00
2013-5-18,78,64,56,51,49,44,79,59,32,30.02,29.96,10,0,16,0.00
2013-5-19,86,67,51,52,48,39,83,55,20,30.00,29.89,9,0,14,0.00
2013-5-20,94,73,56,50,41,22,73,38,8,29.98,29.90,18,1,23,0.00
2013-5-21,89,74,62,47,34,26,47,25,13,29.97,29.86,22,2,28,0.00
2013-5-22,80,64,52,52,44,11,86,54,9,29.89,29.78,20,1,24,0.00
2013-5-23,75,61,53,48,44,35,77,56,25,29.95,29.84,10,0,17,0.00
2013-5-24,77,62,51,47,42,33,79,52,22,29.98,29.92,7,0,14,0.00
2013-5-25,77,61,45,46,39,19,79,51,12,30.01,29.96,9,0,18,0.00
2013-5-26,76,61,47,49,43,38,83,55,28,30.04,29.98,13,0,18,0.00
2013-5-27,82,64,50,50,46,41,75,55,24,30.00,29.87,12,0,20,0.00
2013-5-28,79,62,52,53,50,47,86,66,35,29.90,29.78,7,0,13,0.00
2013-5-29,88,70,55,53,47,32,79,49,20,29.83,29.76,14,1,21,0.00
2013-5-30,88,71,56,53,48,39,80,51,19,29.92,29.80,8,0,14,0.00
2013-5-31,93,72,54,54,49,43,79,49,19,29.92,29.84,11,0,16,0.00
2013-6-1,103,79,64,55,44,12,63,37,4,29.90,29.78,13,1,21,0.00
2013-6-2,89,74,58,55,46,22,78,44,9,29.86,29.78,10,0,20,0.00
2013-6-3,84,66,55,54,49,27,84,59,13,29.91,29.82,8,0,13,0.00
2013-6-4,85,67,51,53,46,13,82,55,7,29.98,29.90,7,0,13,0.00
2013-6-5,89,68,51,54,48,32,85,56,16,30.00,29.90,6,0,12,0.00
2013-6-6,91,72,55,53,49,37,78,49,17,29.96,29.88,8,0,16,0.00
2013-6-7,92,71,54,54,50,38,82,53,19,29.93,29.81,9,0,17,0.00
2013-6-8,92,72,56,56,52,46,80,54,23,29.92,29.81,8,0,12,0.00
2013-6-9,88,70,54,55,46,25,83,50,11,29.93,29.88,9,0,13,0.00
2013-6-10,84,66,51,53,44,23,85,50,13,29.96,29.90,11,0,16,0.00
2013-6-11,97,75,57,48,36,13,50,28,7,29.97,29.91,8,0,12,0.00
2013-6-12,86,72,60,55,48,32,72,45,17,30.01,29.95,9,0,14,0.00
2013-6-13,90,73,54,53,49,38,82,47,17,30.01,29.91,9,0,13,0.00
2013-6-14,88,70,55,50,41,21,70,39,9,29.95,29.86,6,0,13,0.00
2013-6-15,85,67,50,51,43,25,78,49,12,29.99,29.90,7,0,13,0.00
2013-6-16,90,71,51,47,39,26,65,35,11,30.02,29.96,12,0,18,0.00
2013-6-17,92,74,58,49,40,26,55,34,10,30.00,29.92,13,1,16,0.00
2013-6-18,84,68,58,45,41,35,53,39,18,29.93,29.90,5,0,10,0.00
2013-6-19,88,74,53,49,43,33,69,35,15,29.89,29.83,8,0,13,0.00
2013-6-20,88,72,58,48,38,24,59,33,10,29.91,29.83,9,0,17,0.00
2013-6-21,89,72,57,45,35,24,41,27,12,29.93,29.86,14,0,17,0.00
2013-6-22,88,72,56,44,40,36,56,35,17,29.92,29.84,9,0,17,0.00
2013-6-23,83,68,55,52,46,37,77,48,20,29.90,29.81,14,0,17,0.00
2013-6-24,80,65,55,53,51,46,86,64,33,29.96,29.85,7,0,13,0.00
2013-6-25,88,71,56,57,53,49,80,56,28,30.00,29.93,6,0,17,0.00
2013-6-26,96,80,63,58,53,48,73,43,20,30.04,29.95,12,0,16,0.00
2013-6-27,100,82,69,57,49,30,57,36,10,30.07,30.02,12,0,20,0.00
2013-6-28,105,86,72,52,46,39,40,27,12,30.06,29.93,10,0,17,0.00
2013-6-29,108,89,74,49,40,19,38,20,5,29.98,29.84,6,0,13,0.00
2013-6-30,106,90,77,54,43,32,36,21,10,29.90,29.82,7,0,13,0.00
2013-7-1,99,86,73,59,45,35,49,27,12,29.95,29.88,13,1,17,0.00
2013-7-2,100,83,72,56,48,35,51,31,12,30.02,29.95,10,0,20,0.00
2013-7-3,99,82,71,55,45,36,52,29,14,29.98,29.85,11,0,17,0.00
2013-7-4,99,82,68,49,41,29,41,27,10,29.89,29.79,12,0,13,0.00
2013-7-5,95,79,66,54,46,38,58,34,16,29.89,29.81,8,0,12,0.00
2013-7-6,96,75,62,58,54,47,71,51,20,29.86,29.79,4,0,13,0.00
2013-7-7,100,80,62,57,47,28,76,40,9,29.92,29.83,8,0,12,0.00
2013-7-8,105,84,67,49,37,24,49,21,6,30.01,29.92,8,0,17,0.00
2013-7-9,103,89,77,49,36,20,31,17,8,30.04,29.98,13,0,18,0.00
2013-7-10,89,78,71,58,52,46,57,41,25,30.03,29.96,7,0,13,0.00
2013-7-11,83,74,68,60,56,50,69,55,37,30.02,29.93,1,0,4,0.00
2013-7-12,93,76,65,61,56,49,79,54,24,29.97,29.89,8,0,16,0.00
2013-7-13,96,79,63,58,50,30,74,42,12,29.98,29.89,9,0,22,0.00
2013-7-14,98,82,69,56,49,41,57,35,16,29.97,29.88,15,1,18,0.00
2013-7-15,97,80,67,49,41,31,43,27,11,29.92,29.86,11,0,17,0.00
2013-7-16,93,78,65,48,33,10,46,24,5,30.03,29.90,13,1,20,0.00
2013-7-17,98,79,62,39,28,2,28,18,3,30.06,29.98,12,0,16,0.00
2013-7-18,97,80,68,46,31,10,34,19,5,30.04,29.90,5,0,8,0.00
2013-7-19,98,80,67,54,41,14,59,27,5,29.95,29.85,8,0,13,0.00
2013-7-20,89,74,65,63,57,54,70,56,39,29.92,29.83,8,0,12,0.00
2013-7-21,86,74,67,65,60,54,81,62,41,29.97,29.81,23,0,28,0.01
2013-7-22,87,76,65,62,59,57,77,58,39,30.02,29.95,11,0,16,0.00
2013-7-23,94,76,64,59,56,50,74,53,24,30.04,29.95,10,0,16,0.00
2013-7-24,97,79,66,58,55,48,68,47,20,30.01,29.92,9,0,10,0.00
2013-7-25,98,80,65,57,53,47,68,43,20,30.01,29.95,8,0,13,0.00
2013-7-30,92,80,65,54,49,42,66,37,19,30.10,30.03,13,1,13,0.00
2013-7-31,88,72,59,56,53,48,77,55,26,30.10,30.00,9,0,8,0.00
2013-8-1,88,68,53,55,48,36,87,54,18,30.03,29.93,9,1,9,0.00
2013-8-2,90,71,56,53,47,36,72,46,16,30.00,29.92,13,1,13,0.00
2013-8-3,91,72,55,52,47,28,81,47,11,30.01,29.94,10,1,10,0.00
2013-8-4,94,75,60,52,46,34,64,39,12,30.02,29.95,10,1,10,0.00
2013-8-5,94,77,63,49,38,23,48,27,8,30.02,29.95,13,1,13,0.00
2013-8-6,92,74,58,46,37,26,53,29,10,30.05,29.98,14,1,14,0.00
2013-8-7,93,74,60,48,38,26,54,30,10,30.08,29.99,8,0,8,0.00
2013-8-8,91,75,61,45,36,25,49,27,10,30.03,29.93,16,2,16,0.00
2013-8-9,86,70,57,44,34,25,46,28,13,29.99,29.92,15,1,15,0.00
2013-8-10,88,70,56,48,37,21,48,31,18,30.03,29.97,16,1,16,0.00
2013-8-11,92,73,58,49,43,30,56,37,12,30.01,29.92,14,1,14,0.00
2013-8-12,93,76,59,48,44,33,55,36,12,29.99,29.92,8,1,8,0.00
2013-8-13,98,78,61,52,47,30,61,37,10,29.99,29.90,14,2,14,0.00
2013-8-14,103,82,66,54,46,32,63,34,9,29.96,29.87,17,2,17,0.00
2013-8-15,100,83,70,51,40,20,48,25,9,30.00,29.92,15,1,15,0.00
2013-8-16,99,83,70,53,44,29,39,26,16,30.01,29.94,14,2,14,0.00
2013-8-17,103,84,71,52,48,44,44,31,15,30.01,29.87,12,1,12,0.00
2013-8-18,100,84,70,54,50,47,50,33,19,29.95,29.87,20,2,20,0.00
2013-8-19,97,80,69,60,52,45,55,38,22,29.96,29.89,8,0,8,0.00
2013-8-20,98,82,66,56,44,34,55,30,12,29.96,29.89,13,1,13,0.00
2013-8-21,102,84,69,49,42,32,34,25,11,29.97,29.88,16,1,16,0.00
2013-8-22,93,79,72,48,44,39,39,30,18,29.98,29.95,0,0,0,0.00
2013-8-23,99,83,70,48,42,27,43,25,12,29.96,29.62,0,0,0,0.00
2013-8-24,98,81,69,60,42,23,57,28,8,29.75,29.65,28,2,28,0.00
2013-8-25,94,80,69,62,56,46,62,44,25,29.82,29.72,20,3,20,0.00
2013-8-26,85,79,74,67,60,56,71,53,41,29.82,29.72,17,2,17,0.00
2013-8-27,96,83,72,62,58,56,63,45,28,29.75,29.64,16,2,16,0.00
2013-8-28,98,84,72,60,54,47,59,39,23,29.79,29.67,15,2,15,0.00
2013-8-29,96,82,75,74,62,50,81,54,27,29.85,29.77,16,1,16,0.16
2013-8-30,93,81,76,69,66,61,73,62,36,29.87,29.80,16,1,16,0.00
2013-8-31,92,80,72,68,66,62,77,62,40,29.87,29.76,15,1,15,0.00
2013-9-1,96,80,70,65,63,52,80,58,24,29.82,29.71,13,1,13,0.00
2013-9-2,97,80,68,65,60,54,76,54,25,29.81,29.69,26,1,26,0.01
2013-9-3,99,84,73,61,57,50,65,42,23,29.79,29.70,20,1,20,0.00
2013-9-4,98,84,74,65,56,52,54,40,24,29.80,29.72,30,1,30,0.00
2013-9-5,102,84,75,64,57,47,66,42,20,29.78,29.71,41,2,41,0.35
2013-9-6,99,86,75,62,54,47,57,37,19,29.78,29.68,7,0,0,0.00
2013-9-7,96,81,72,69,58,52,82,49,25,29.76,29.70,16,1,0,0.48
2013-9-8,96,81,70,62,53,41,68,42,17,29.75,29.62,3,0,0,0.00
2013-9-9,93,78,69,57,50,43,60,39,20,29.69,29.59,7,0,4,0.00
2013-9-10,89,74,62,54,50,41,70,46,20,29.82,29.68,16,1,16,0.00
2013-9-11,88,72,58,52,45,30,70,42,14,29.87,29.81,12,1,12,0.00
2013-9-12,96,78,63,47,38,23,40,26,9,29.84,29.71,9,0,9,0.00
2013-9-13,97,81,68,45,38,24,35,23,8,29.75,29.56,17,1,17,0.00
2013-9-14,101,84,72,52,42,36,38,24,11,29.61,29.50,9,0,9,0.00
2013-9-15,101,84,73,51,41,34,36,23,13,29.67,29.57,18,1,18,0.00
2013-9-16,100,83,71,52,42,35,44,25,12,29.71,29.60,22,1,22,0.00
2013-9-17,91,76,64,50,43,33,52,32,14,29.68,29.58,13,1,13,0.00
2013-9-18,86,68,54,53,43,31,85,43,15,29.70,29.62,8,0,8,0.00
2013-9-19,91,72,59,58,50,41,77,48,22,29.72,29.63,9,0,9,0.00
2013-9-20,82,66,55,59,54,44,89,68,28,29.78,29.70,9,0,9,0.00
2013-9-21,81,64,53,55,52,44,86,68,30,29.80,29.68,5,0,13,0.00
2013-9-22,79,66,54,53,47,39,83,55,26,29.77,29.68,8,0,8,0.00
2013-9-23,93,73,56,48,39,31,72,34,11,29.82,29.73,10,0,10,0.00
2013-9-24,92,74,63,46,37,31,40,27,12,29.83,29.72,15,1,15,0.00
2013-9-25,79,65,55,50,40,28,79,41,21,29.76,29.59,20,3,20,0.00
2013-9-26,72,60,53,48,45,33,74,59,27,29.82,29.64,10,0,10,0.00
2013-9-27,82,64,49,43,29,18,68,32,10,29.94,29.81,9,0,9,0.00
2013-9-28,88,71,57,28,20,14,23,15,8,29.97,29.86,12,0,12,0.00
2013-9-29,90,73,59,34,24,18,26,17,8,29.97,29.86,10,1,10,0.00
2013-9-30,90,72,59,36,29,21,30,21,10,29.91,29.76,10,1,10,0.00
2013-10-1,86,71,57,48,38,32,62,33,15,29.83,29.76,12,1,12,0.00
2013-10-2,81,64,51,53,47,35,85,58,28,29.86,29.77,9,0,9,0.00
2013-10-3,76,63,55,54,51,46,85,66,38,29.84,29.71,10,1,10,0.00
2013-10-4,84,66,50,53,33,4,88,43,8,29.99,29.79,14,1,14,0.00
2013-10-5,86,70,55,29,12,6,23,11,5,30.05,29.96,13,1,10,0.00
2013-10-6,90,72,57,33,13,7,17,11,5,30.02,29.88,15,1,15,0.00
2013-10-7,86,72,59,31,17,7,21,13,7,29.90,29.78,14,1,14,0.00
2013-10-8,76,63,54,50,32,14,82,37,17,29.83,29.70,10,1,10,0.00
2013-10-9,56,51,46,48,46,42,89,81,65,29.73,29.64,14,1,14,0.56
2013-10-10,64,52,43,48,42,38,88,71,44,29.96,29.73,1,0,0,0.00
2013-10-11,75,59,46,47,42,37,79,55,25,29.97,29.85,7,0,0,0.00
2013-10-12,78,63,53,50,43,33,75,50,20,29.90,29.79,14,1,14,0.00
2013-10-13,72,58,46,50,46,40,88,67,33,29.94,29.82,7,0,7,0.00
2013-10-14,83,65,50,44,33,23,76,37,12,29.96,29.84,18,1,18,0.00
2013-10-15,82,68,58,33,25,19,28,21,11,29.91,29.79,8,1,8,0.00
2013-10-16,82,67,57,30,23,18,28,19,11,29.99,29.90,10,0,10,0.00
2013-10-17,82,66,53,32,25,19,37,22,10,29.95,29.82,12,0,12,0.00
2013-10-18,88,69,57,37,26,17,37,22,8,29.92,29.84,8,0,8,0.00
2013-10-19,88,71,59,35,23,8,27,18,5,29.93,29.85,8,0,8,0.00
2013-10-20,85,69,59,36,26,17,38,21,9,29.89,29.79,10,1,10,0.00
2013-10-21,87,69,56,38,28,20,37,23,10,29.88,29.80,8,0,8,0.00
2013-10-22,89,72,60,39,24,13,39,17,8,29.88,29.78,12,0,12,0.00
2013-10-23,74,61,51,51,41,20,86,52,20,29.88,29.78,6,0,6,0.00
2013-10-24,72,58,48,50,48,41,86,69,42,29.97,29.86,7,0,7,0.00
2013-10-25,82,64,47,49,42,29,85,51,18,30.04,29.94,9,0,9,0.00
2013-10-26,90,74,62,40,28,21,28,19,10,30.00,29.86,14,1,14,0.00
2013-10-27,83,69,55,49,33,24,81,30,13,29.88,29.68,16,2,16,0.00
2013-10-28,58,53,50,50,46,42,87,76,60,29.86,29.71,21,3,21,0.04
2013-10-29,61,52,45,46,42,38,88,71,42,29.94,29.85,7,0,5,0.00
2013-10-30,69,56,45,45,38,30,83,54,26,30.04,29.93,8,0,8,0.00
2013-10-31,78,62,49,32,25,17,51,27,11,30.12,30.01,13,1,13,0.00
2013-11-1,84,67,56,36,24,20,31,21,11,30.11,29.97,21,2,21,0.00
2013-11-2,80,65,54,35,27,19,43,25,11,30.03,29.87,14,2,14,0.00
2013-11-3,70,56,47,47,40,27,85,58,34,29.93,29.83,9,0,8,0.00
2013-11-4,62,54,47,45,44,40,83,69,49,29.97,29.81,12,0,12,0.00
2013-11-5,72,56,44,45,27,6,82,41,12,30.20,29.97,8,0,8,0.00
2013-11-6,81,63,50,24,6,-3,19,11,5,30.24,30.15,8,0,8,0.00
2013-11-7,84,70,59,29,11,1,20,11,6,30.15,30.01,12,2,12,0.00
2013-11-8,82,67,58,23,14,7,19,14,6,30.04,29.94,5,0,5,0.00
2013-11-9,81,64,54,30,17,10,24,17,8,30.10,30.00,7,0,7,0.00
2013-11-10,78,65,56,28,15,9,22,15,8,30.15,30.05,8,0,8,0.00
2013-11-11,85,67,55,34,23,12,31,20,12,30.15,30.03,6,0,6,0.00
2013-11-12,80,69,58,48,30,24,38,23,15,30.18,30.09,8,0,8,0.00
2013-11-13,91,74,62,37,27,23,26,18,10,30.10,29.91,21,1,21,0.00
2013-11-14,87,71,60,37,25,18,28,19,10,29.97,29.77,13,1,13,0.00
2013-11-15,64,56,49,48,43,27,83,63,26,29.78,29.68,4,0,4,0.00
2013-11-16,54,52,50,48,45,42,86,78,65,29.98,29.77,7,0,7,0.01
2013-11-17,67,55,45,44,42,38,83,63,41,30.11,29.98,7,0,7,0.00
2013-11-18,68,55,46,48,43,37,80,64,39,30.18,30.06,7,0,7,0.00
2013-11-19,60,54,51,49,47,45,88,77,59,30.11,29.97,6,0,6,0.00
2013-11-20,59,54,50,49,47,44,85,77,60,30.00,29.92,5,0,5,0.05
2013-11-21,57,54,49,52,49,46,89,86,77,29.92,29.87,1,0,1,0.17
2013-11-22,50,46,42,46,42,36,90,86,75,30.00,29.86,4,0,1,0.28
2013-11-23,60,49,40,43,38,34,83,67,46,30.13,30.00,9,0,9,0.00
2013-11-24,63,50,43,41,36,33,70,58,37,30.23,30.12,10,0,10,0.00
2013-11-25,70,55,44,37,34,31,67,47,26,30.28,30.18,13,0,13,0.00
2013-11-26,73,60,50,35,29,24,51,33,18,30.23,30.08,16,1,16,0.00
2013-11-27,72,60,51,34,29,24,40,31,21,30.10,29.90,22,4,22,0.00
2013-11-28,66,56,49,42,32,25,67,41,27,30.08,29.92,17,1,17,0.00
2013-11-29,60,54,50,51,40,30,85,61,38,30.21,30.08,5,0,5,0.19
2013-11-30,72,59,50,46,38,32,66,47,28,30.22,30.10,10,0,10,0.00
2013-12-1,75,60,51,39,29,15,48,31,17,30.25,30.13,12,0,12,0.00
2013-12-2,74,61,53,41,22,15,34,23,13,30.18,29.93,9,0,9,0.00
2013-12-3,64,55,51,47,35,18,84,52,25,29.93,29.76,25,2,25,0.00
2013-12-4,56,47,38,47,34,28,85,63,36,30.00,29.78,21,2,21,0.00
2013-12-5,53,44,38,37,31,20,78,62,27,30.15,29.98,13,1,13,0.00
2013-12-6,53,43,37,35,31,28,77,63,43,30.22,30.13,7,0,7,0.00
2013-12-7,47,43,37,43,36,31,88,76,56,30.17,30.05,18,1,18,0.06
2013-12-8,50,42,36,36,33,30,83,72,48,30.24,30.13,9,0,9,0.00
2013-12-9,56,42,32,31,15,-6,78,40,12,30.36,30.22,15,1,15,0.00
2013-12-10,64,48,36,12,3,-4,25,16,9,30.32,30.15,12,1,12,0.00
2013-12-11,71,55,44,16,7,-1,23,15,8,30.20,30.14,9,0,9,0.00
2013-12-12,68,53,44,27,14,3,42,23,12,30.23,30.13,9,0,9,0.00
2013-12-13,64,51,41,28,20,15,52,30,15,30.25,30.15,8,0,8,0.00
2013-12-14,72,56,45,20,14,8,32,19,10,30.34,30.22,10,1,10,0.00
2013-12-15,78,61,47,28,12,6,23,15,8,30.28,30.13,8,0,8,0.00
2013-12-16,80,68,57,42,20,13,28,16,10,30.18,30.10,9,1,9,0.00
2013-12-17,84,71,63,30,19,14,21,14,9,30.14,30.00,10,1,10,0.00
2013-12-18,73,61,46,42,28,14,81,33,13,30.00,29.85,9,0,9,0.00
2013-12-19,49,46,39,44,41,34,88,83,72,29.87,29.73,9,0,9,0.21
2013-12-20,57,45,37,40,36,31,85,70,37,30.01,29.80,8,0,8,0.01
2013-12-21,57,46,39,43,38,34,82,72,49,30.12,29.97,5,0,5,0.00
2013-12-22,67,52,41,39,32,27,77,49,23,30.31,30.12,8,0,8,0.00
2013-12-23,71,57,47,34,28,22,48,33,21,30.35,30.24,6,0,6,0.00
2013-12-24,76,62,52,33,25,21,34,25,14,30.24,30.12,9,0,9,0.00
2013-12-25,76,60,50,28,16,4,29,19,8,30.24,30.14,10,1,10,0.00
2013-12-26,76,60,49,24,9,4,22,14,7,30.21,30.10,12,1,12,0.00
2013-12-27,78,64,53,29,7,-4,19,11,6,30.19,30.07,15,1,15,0.00
2013-12-28,73,60,48,28,12,7,28,15,8,30.08,29.94,12,1,12,0.00
2013-12-29,73,57,46,22,7,-8,25,14,8,30.19,30.01,14,1,14,0.00
2013-12-30,72,57,48,17,0,-9,14,10,5,30.28,30.18,8,0,8,0.00
2013-12-31,73,58,49,16,7,-4,20,13,7,30.23,30.10,4,0,4,0.00
2014-1-1,77,62,50,24,13,6,25,15,8,30.15,30.07,10,1,10,0.00
2014-1-2,79,65,57,28,18,14,22,17,11,30.12,30.01,15,3,15,0.00